Location: Bussu
(49.9333°N, 2.9667°E)
Time: 05:06:53
(UTC+00:00)

Daily predictions for brighter satellites

Satellite Brightness Start Highest point End
(mag) Time Altitude Azimuth Time Altitude Azimuth Time Altitude Azimuth
Resurs 1-4 Rocket 4.2 00:02:34 10° NE 00:05:48 16° E 00:09:02 10° SE
GP-B 3.6 00:02:45 10° N 00:07:04 52° W 00:09:14 27° SW
Cosmos 841 Rocket 4.4 00:06:13 23° SSE 00:08:40 36° ESE 00:13:22 10° NE
Cosmos 2263 4.1 00:03:46 10° NNW 00:09:29 81° WSW 00:13:07 23° SSE
NOSS 3-1 (C) 3.6 00:04:58 12° SW 00:10:01 70° NW 00:16:35 10° NE
Cosmos 1932 4.4 00:07:21 10° NW 00:13:34 70° SW 00:17:55 20° SSE
Cosmos 1606 4.2 00:11:35 10° N 00:15:01 30° ENE 00:17:30 15° SE
Cosmos 1356 3.3 00:15:18 41° SSW 00:16:22 78° WNW 00:19:47 10° N
NOSS 8 (H) 3.9 00:17:54 46° SW 00:18:41 83° SE 00:21:40 10° NE
ALOS 2 4.3 00:17:01 16° WSW 00:18:48 21° W 00:22:08 10° NW
USA 290 4.3 00:18:17 15° ESE 00:18:58 16° ESE 00:21:04 10° ENE
Cosmos 1937 Rocket 3.5 00:14:00 10° NNW 00:19:22 85° WSW 00:22:43 23° SSE
USA 215 3.3 00:14:16 10° ENE 00:20:51 86° NNW 00:27:24 10° WSW
NOSS 2-3 (E) 4.1 00:17:47 16° WSW 00:21:07 61° NW 00:26:12 10° NE
NOSS 3-1 (A) 3.3 00:18:40 20° SW 00:22:40 88° NW 00:29:12 10° NE
Cosmos 1898 Rocket 3.6 00:18:37 10° NNW 00:23:46 59° WSW 00:26:28 27° S
Cosmos 1242 Rocket 3.3 00:21:54 10° N 00:25:24 46° ENE 00:27:23 22° SE
Cosmos 1953 Rocket 3.6 00:25:22 30° SSW 00:27:30 76° W 00:31:57 10° N
DELTA 2 R/B (1) 4.4 00:28:13 27° S 00:28:53 27° S 00:33:29 10° ESE
Cosmos 1943 Rocket 3.5 00:25:47 10° NW 00:30:04 24° WSW 00:32:12 19° SW
Cosmos 921 Rocket 3.7 00:31:04 26° SSE 00:32:56 41° ESE 00:36:54 10° NNE
Cosmos-2242 4.4 00:29:30 10° NNW 00:33:16 28° W 00:35:07 21° SW
Cosmos 2058 2.9 00:32:29 30° S 00:34:22 70° E 00:38:28 10° NNE
CZ-2D R/B 3.6 00:30:33 10° NE 00:34:52 26° E 00:38:34 13° SE
Cosmos 1892 3.5 00:33:34 25° SW 00:35:20 42° WNW 00:39:03 10° N
Cosmos 1408 3.2 00:35:06 28° SW 00:36:37 46° WNW 00:40:13 10° N
In-Cosmos 22 Rocket 4.5 00:34:44 23° SSW 00:38:09 59° WNW 00:43:32 10° N
CREW DRAGON DEMO-1 DEB 2.6 00:39:10 30° W 00:40:08 63° N 00:42:33 10° ENE
EO 1 Del DPAF 3.1 00:37:06 10° NNE 00:40:51 80° WNW 00:42:27 32° SSW
USA 307 3.4 00:41:14 30° S 00:42:42 42° SE 00:46:44 10° ENE
CENTAUR R/B 4.4 00:35:58 10° NW 00:43:08 42° NNE 00:51:13 10° E
Cosmos 1814 Rocket 4.5 00:41:01 23° S 00:43:56 49° ESE 00:48:54 10° NNE
Cosmos 372 Rocket 4.0 00:39:35 10° NNW 00:44:52 87° WSW 00:48:45 19° SSE
Cosmos 1842 Rocket 3.5 00:40:50 10° N 00:45:13 85° W 00:47:37 26° S
FALCON 9 DEB 2.9 00:42:11 10° WNW 00:45:20 80° NNE 00:48:29 10° ESE
Cosmos 468 Rocket 4.4 00:46:00 20° SW 00:49:32 55° WNW 00:54:43 10° NNE
Cosmos 1076 Rocket 4.0 00:47:59 23° SSE 00:50:22 50° E 00:54:30 10° NNE
Cosmos 1437 Rocket 3.1 00:47:59 10° NNW 00:51:44 49° W 00:53:14 30° SSW
Cosmos 1943 3.2 00:48:43 22° SW 00:52:29 79° WNW 00:58:11 10° NNE
Cosmos 1825 2.6 00:52:03 28° SW 00:53:44 52° WNW 00:57:27 10° N
SL-16 R/B 3.0 00:49:10 10° SE 00:55:13 59° ENE 01:01:16 10° N
USA 267 3.6 00:51:01 15° SSE 00:56:04 42° SW 01:02:14 10° WNW
FALCON 9 DEB 2.7 00:54:14 10° WNW 00:57:19 72° SSW 01:00:23 10° ESE
FALCON 9 DEB 3.9 00:55:27 10° W 00:58:17 31° SW 00:58:17 31° SW
USA 308 3.1 00:56:47 27° SSW 00:58:48 52° SE 01:02:57 10° ENE
Cosmos 1763 Rocket 4.2 00:55:46 17° SW 00:59:24 47° WNW 01:04:25 10° NNE
Cosmos 1633 3.0 00:59:42 26° SSE 01:01:26 53° E 01:04:53 10° NNE
Exosat Rocket 4.1 00:57:05 18° SW 01:01:38 61° WNW 01:06:41 10° NNE
Cosmos 1125 Rocket 4.4 00:56:39 10° NNW 01:01:46 49° ENE 01:06:53 10° SE
Cosmos 1570 Rocket 4.1 00:59:36 23° S 01:02:50 69° ESE 01:08:02 10° NNE
Cosmos 2221 2.8 00:58:56 10° NNW 01:03:08 53° W 01:05:18 26° SSW
Cosmos 1656 Rocket 4.4 00:59:00 10° NW 01:04:12 37° WSW 01:07:10 22° SSW
Helios 1B rocket 4.0 01:00:53 10° NE 01:04:26 28° E 01:07:17 14° SSE
SL-4 R/B 1.9 01:00:39 10° WNW 01:04:28 76° N 01:08:02 10° E
Cosmos 1603 4.0 01:00:22 19° SW 01:04:30 64° WNW 01:10:08 10° NNE
UNK 4.4 01:01:11 10° SE 01:05:35 53° ENE 01:10:07 10° N
NOSS 2-2 (D) 3.4 01:04:33 29° S 01:05:54 47° SE 01:09:30 10° NE
CZ-4C R/B 4.1 01:04:16 10° SE 01:06:51 14° ESE 01:09:36 10° ENE
FALCON 9 DEB 2.7 01:05:14 10° WNW 01:08:22 73° SSW 01:11:28 10° ESE
FALCON 9 DEB 2.7 01:05:36 10° WNW 01:08:42 63° SSW 01:11:45 10° SE
Cosmos 2098 Rocket 3.3 01:10:38 23° SSW 01:13:40 66° W 01:17:41 10° N
USA 305 2.8 01:12:05 21° SW 01:14:49 69° SSE 01:19:04 10° ENE
Lacrosse 5 rocket 1.8 01:12:24 10° NW 01:15:55 53° NNE 01:19:30 10° ESE
Cosmos 405 Rocket 4.3 01:18:38 15° WSW 01:20:41 23° WNW 01:23:44 10° NNW
Cosmos 2208 Rocket 4.1 01:18:26 21° SSW 01:22:10 81° ESE 01:27:40 10° NNE
Meteor 2-15 Rocket 4.4 01:18:52 10° NNW 01:25:02 81° W 01:30:18 15° S
SL-16 R/B 4.4 01:22:41 10° W 01:26:44 20° NW 01:30:49 10° N
Lacrosse 4 Rocket 1.8 01:23:27 10° NW 01:27:18 40° WSW 01:29:31 21° S
Helios 1A 3.7 01:27:13 22° SSW 01:29:23 38° W 01:33:21 10° NNW
Cosmos 1437 3.1 01:27:19 10° NNW 01:29:56 37° W 01:30:46 29° SW
Aureole 3 Rocket 3.5 01:26:18 10° NNW 01:30:21 58° W 01:34:29 17° S
Cosmos 540 Rocket 4.2 01:26:38 16° SW 01:30:29 45° WNW 01:35:25 10° NNE
ERBS 3.4 01:30:15 22° S 01:31:23 27° SE 01:34:12 10° ENE
Cosmos 2369 Rocket 4.0 01:28:46 10° WNW 01:32:01 16° W 01:34:13 13° WSW
CZ-4 R/B 4.2 01:29:54 10° N 01:34:27 52° WNW 01:37:46 18° SW
ATLAS 5 CENTAUR R/B 1.4 01:32:40 20° SW 01:35:24 87° NW 01:39:58 10° NE
CZ-3B R/B 2.8 01:28:22 10° WNW 01:36:25 61° NNE 01:39:14 10° E
USA 306 2.8 01:33:54 14° WSW 01:37:29 88° SE 01:41:45 10° ENE
Cosmos 1271 Rocket 4.0 01:34:18 10° N 01:37:50 37° ENE 01:41:21 10° SE
Cosmos 1553 Rocket 4.2 01:33:17 10° N 01:39:36 75° ENE 01:45:47 10° SSE
BREEZE-M DEB (TANK) 4.4 01:35:10 10° WNW 01:40:55 66° SSW 02:03:50 10° SE
NOSS 2-2 (E) 3.5 01:41:36 17° WSW 01:44:10 60° NW 01:48:07 10° NE
ARGOS Delta rocket 4.2 01:39:11 10° N 01:44:41 73° WNW 01:48:59 16° SSW
MINOTAUR 4 R/B 4.4 01:41:14 10° SSE 01:44:43 63° ENE 01:48:15 10° N
Resurs 1-4 Rocket 2.1 01:40:58 10° NNE 01:46:19 86° WNW 01:50:39 16° SSW
Cosmos 2026 Rocket 4.1 01:42:46 16° SSW 01:47:55 76° W 01:54:20 10° N
Cosmos 841 Rocket 4.5 01:46:17 13° WSW 01:50:32 38° WNW 01:55:21 10° NNE
Cosmos 1606 4.1 01:47:28 10° NW 01:50:35 24° W 01:52:28 16° SW
ADEOS II 2.6 01:46:40 10° NNE 01:51:51 54° E 01:56:54 10° S
USA 290 3.3 01:51:03 17° WSW 01:53:08 35° WNW 01:56:08 10° N
Cosmos 1151 Rocket 3.2 01:49:51 10° N 01:54:07 71° ENE 01:58:22 10° SSE
Cosmos 1782 2.8 01:53:10 10° N 01:57:12 86° E 02:01:13 10° S
Cosmos 1833 Rocket 4.5 01:53:56 10° SSE 01:58:18 24° ESE 02:02:41 10° NE
NOSS 2-2 (C) 3.5 01:55:47 15° WSW 01:58:35 57° NW 02:02:27 10° NE
ADEOS Rocket 3.3 01:53:01 10° SSE 02:00:09 87° WSW 02:06:36 10° NNW
IDEFIX/ARIANE 42P 3.8 01:55:52 10° NNE 02:00:43 37° E 02:05:31 10° SSE
Meteor 1-28 Rocket 3.7 01:59:04 10° SSE 02:02:50 63° ENE 02:06:37 10° N
USA 215 4.1 01:57:18 10° ENE 02:03:35 52° N 02:09:52 10° W
NOSS 3-2 (A) 4.1 01:57:36 10° NW 02:05:00 88° NE 02:13:30 10° SE
IRS-1D 4.0 02:01:13 10° NNE 02:06:16 55° E 02:11:10 10° S
NOSS 3-2 (C) 4.4 02:02:26 10° NW 02:09:43 69° NE 02:18:05 10° SE
CZ-4C R/B 4.2 02:08:20 10° SE 02:11:37 44° ENE 02:15:00 10° N
Cosmos 2151 3.7 02:10:38 14° SW 02:13:53 39° WNW 02:17:52 10° N
CREW DRAGON DEMO-1 DEB 2.7 02:11:29 10° WNW 02:13:53 63° N 02:16:18 10° E
Cosmos 1515 Rocket 4.4 02:10:14 10° N 02:14:35 52° ENE 02:18:56 10° SSE
CZ-2D R/B 2.5 02:10:09 10° N 02:15:13 53° WNW 02:19:53 12° SW
Alouette 2 Rocket 3.3 02:11:50 10° NNW 02:15:25 72° WSW 02:19:43 10° S
NPP 3.8 02:10:04 10° N 02:15:25 64° WNW 02:20:23 12° SSW
Landsat 4 3.8 02:12:59 10° NNE 02:16:47 76° ESE 02:20:25 11° S
Cosmos 1408 Rocket 4.4 02:14:07 10° SSE 02:18:24 48° E 02:22:44 10° NNE
Cosmos 1766 Rocket 3.6 02:14:18 11° S 02:18:38 90° NNW 02:23:09 10° N
FALCON 9 DEB 4.0 02:18:14 10° W 02:20:48 23° SW 02:23:19 10° SSE
X-37B 2.9 02:22:09 10° S 02:22:09 10° S 02:22:18 10° S
AQUA 4.0 02:16:57 10° N 02:21:41 63° WNW 02:26:09 11° SSW
USA 307 3.3 02:18:21 10° W 02:22:36 65° NNW 02:26:50 10° ENE
Cosmos 2266 Rocket 4.2 02:18:28 10° S 02:24:29 70° E 02:30:31 10° NNE
DELTA 2 DEB (DPAF) 4.1 02:22:51 10° S 02:27:16 69° WSW 02:31:44 10° NNW
Cosmos 2082 Rocket 4.3 02:23:45 10° SSE 02:27:45 21° E 02:31:47 10° NE
Cosmos 2292 Rocket 3.6 02:30:15 12° SW 02:32:38 33° WNW 02:35:33 10° N
CENTAUR R/B 3.3 02:26:44 10° NW 02:34:46 87° SW 02:43:41 10° SE
Genesis I 3.3 02:33:17 10° NW 02:37:21 86° NE 02:41:25 10° SE
USA 308 3.5 02:34:35 10° W 02:38:47 58° NNW 02:43:01 10° ENE
SL-16 R/B 3.5 02:33:54 10° SSW 02:39:11 29° W 02:44:30 10° NW
Okean 3 Rocket 3.8 02:35:16 10° SSW 02:39:35 58° WNW 02:43:56 10° N
Helios 1B rocket 3.5 02:36:02 10° N 02:39:42 32° WNW 02:43:21 10° SW
BREEZE-M DEB (TANK) 3.1 02:38:32 10° W 02:41:06 70° S 02:49:11 10° ESE
Meteor 1-29 3.4 02:37:53 10° N 02:41:11 46° WNW 02:44:26 10° SW
Cosmos 2084 Rocket 3.9 02:39:18 10° SSW 02:43:04 48° SE 02:46:56 10° NE
Spot 1 4.4 02:38:23 10° SSE 02:43:24 88° WSW 02:48:11 10° NNW
Cosmos 1125 Rocket 4.5 02:39:09 10° NW 02:43:36 28° W 02:48:04 10° SSW
SL-4 R/B 2.1 02:40:26 10° W 02:43:51 39° SSW 02:47:06 10° SE
ASTEX 1 3.4 02:39:00 10° S 02:43:56 76° W 02:48:52 10° N
USA 238 DEB 3.9 02:37:48 10° NW 02:45:01 77° SW 02:52:34 10° SSE
Cosmos 1656 3.8 02:39:28 10° NW 02:45:04 59° WSW 02:50:38 10° S
USA 238 3.9 02:37:54 10° NW 02:45:08 77° SW 02:52:41 10° SSE
SL-08 R/B 3.9 02:43:27 10° SSE 02:48:06 64° ENE 02:52:52 10° N
Cosmos 44 4.2 02:45:10 10° SSW 02:50:15 49° ESE 02:55:30 10° NE
ARIANE 5 R/B 3.2 02:49:02 10° NNE 02:53:56 54° E 02:58:51 10° S
CZ-4C R/B 2.2 02:49:05 10° SW 02:54:02 80° SE 03:00:08 10° NE
Lacrosse 5 rocket 1.8 02:51:40 10° WNW 02:54:51 30° SW 02:58:07 10° SSE
USA 305 3.7 02:50:44 10° W 02:54:55 52° N 02:59:05 10° ENE
Cosmos 1862 3.4 02:53:43 10° SSW 02:57:44 66° WNW 03:01:48 10° N
COSMOS 2406 3.6 02:54:31 10° SSW 03:00:06 63° ESE 03:05:43 10° NE
